Location: M?digepalle
(16.1753°N, 80.3496°E)
Time: 09:10:31
(UTC+00:00)

H-2A R/B - Pass Details

Date: 29 October 2020
Orbit: 733 x 837 km, 98.2° (Epoch: 28 November)

Event Time Altitude Azimuth Distance (km) Brightness Sun altitude
Rises 12:47:53 0° 126° (SE) 3,323 4.9 -9.8°
Enters shadow 12:49:04 - 120° (ESE) 2,967 4.6 -10.1°
Exits shadow 12:54:35 14° 65° (ENE) 2,160 3.7 -11.4°
Drops below altitude 10° 12:56:45 10° 41° (NE) 2,434 4.1 -11.9°
Sets 13:00:17 0° 18° (NNE) 3,377 5.1 -12.7°
